User: anonymous   Login
Location: Natural Bridges National Monument
(37.6093°N, 109.9767°W)
Time: 01:33:20
(UTC-07:00)
Language:

Cosmos 1727 Rocket - Orbit

View from above orbital plane
View from above orbital plane
View from above satellite
View from above satellite

Ground track
Ground track

The orbit data is extracted from the following two-line orbital elements,

1 16511U 86008B   14350.50870683 -.00000009  00000-0 -24540-4 0  6410
2 16511 082.9434 177.4800 0023181 316.3524 072.5332 13.75776872450646
Epoch (UTC): 16 December 2014 12:12:32
Eccentricity: 0.0023181
inclination: 82.9434°
perigee height: 962 km
apogee height: 996 km
right ascension of ascending node: 177.4800°
argument of perigee: 316.3524°
revolutions per day: 13.75776872
mean anomaly at epoch: 72.5332°
orbit number at epoch: 45064

The dashed part of the orbit path shows where the satellite is in the earth's shadow,  

DLR